[ ตารางข้อมูล ] [ Min-Max ] [ วันนี้2 ] [ วันนี้4 ] [ เทียบ-A 3วัน ] [ เทียบ-B 4วัน ]   

วันนี้4   [ ◀ ช่วงเก่ากว่า ] [ ช่วงที่ 32 ] [ ช่วงใหม่กว่า ▶ ] [ ล่าสุด ]    [ 3 ชั่วโมง ] [ 6 ชั่วโมง ] [ 12 ชั่วโมง ] [ 24 ชั่วโมง ]   วันนี้4

อุณภูมิในตู้ Knockdown4529  ราย 24 ชั่วโมง  ที่วัดได้ ในช่วงวันเวลา 01/08/2026 (08:18) ถึง 02/08/2026 (08:18) 
ความชื้นในตู้ Knockdown4529  ราย 24 ชั่วโมง  ที่วัดได้ ในช่วงวันเวลา 01/08/2026 (08:18) ถึง 02/08/2026 (08:18) 
การใช้ไฟฟ้าในตู้ Knockdown4529  ราย 24 ชั่วโมง  ที่วัดได้ ในช่วงวันเวลา 01/08/2026 (08:18) ถึง 02/08/2026 (08:18) 

  DS18B20SHTC3PZEM-004TWiFi 
IDDate d/m/Y & Timedata1
สูง
data2
ต่ำ
data3
นอก
temp
pcb
hum
pcb
VoltAmpWattrssiTime
 8817  02/08/2026 08:18:27  28.4  28.1  28.8  29.4  66.7  236.4  0.04  4.6  -82  08:18 
 8816  02/08/2026 08:13:44  28.3  28.0  28.5  29.5  67.0  236.5  0.04  4.6  -83  08:13 
 8815  02/08/2026 08:09:01  28.2  28.0  28.5  29.4  67.2  236.7  0.04  4.6  -81  08:09 
 8814  02/08/2026 08:04:17  28.2  28.0  28.2  29.2  67.2  236.6  0.04  4.6  -81  08:04 
 8813  02/08/2026 07:59:34  28.1  27.9  28.0  29.1  67.0  236.1  0.04  4.7  -76  07:59 
 8812  02/08/2026 07:54:51  28.1  27.9  27.5  29.1  67.1  236.8  0.04  4.6  -75  07:54 
 8811  02/08/2026 07:50:08  28.0  27.9  27.4  29.1  67.2  232.4  0.04  4.6  -80  07:50 
 8810  02/08/2026 07:45:26  27.9  27.9  27.2  29.0  67.4  231.2  0.04  4.6  -79  07:45 
 8809  02/08/2026 07:40:43  27.9  27.9  27.0  29.0  67.5  234.9  0.04  4.6  -79  07:40 
 8808  02/08/2026 07:35:58  27.9  27.9  26.7  28.9  67.5  234.6  0.04  4.6  -78  07:35 
 8807  02/08/2026 07:31:14  27.9  27.8  26.3  28.9  67.5  236.0  0.04  4.6  -75  07:31 
 8806  02/08/2026 07:26:31  27.8  27.9  26.1  28.7  67.4  236.1  0.04  4.6  -78  07:26 
 8805  02/08/2026 07:21:47  27.8  27.8  25.9  28.7  67.5  236.0  0.04  4.6  -78  07:21 
 8804  02/08/2026 07:17:04  27.8  27.9  25.7  28.9  67.6  236.0  0.04  4.6  -79  07:17 
 8803  02/08/2026 07:12:21  27.8  27.9  25.7  28.8  67.6  235.6  0.04  4.6  -79  07:12 
 8802  02/08/2026 07:07:38  27.8  27.9  25.7  28.7  67.7  232.6  0.04  4.6  -81  07:07 
 8801  02/08/2026 07:02:55  27.8  27.9  25.8  28.9  67.9  235.1  0.04  4.6  -80  07:02 
 8800  02/08/2026 06:58:12  27.8  27.9  25.5  28.7  68.0  235.3  0.04  4.6  -81  06:58 
 8799  02/08/2026 06:53:29  27.8  27.9  25.4  28.9  67.5  234.2  0.04  4.6  -80  06:53 
 8798  02/08/2026 06:48:46  27.8  27.9  25.4  28.8  67.5  235.5  0.04  4.6  -76  06:48 
 8797  02/08/2026 06:44:03  27.8  27.9  25.2  28.7  67.6  234.5  0.04  4.6  -79  06:44 
 8796  02/08/2026 06:39:20  27.8  27.9  25.2  28.8  67.8  234.8  0.04  4.6  -76  06:39 
 8795  02/08/2026 06:34:37  27.8  27.9  25.2  28.7  67.6  233.9  0.03  4.6  -77  06:34 
 8794  02/08/2026 06:29:53  27.8  27.9  25.3  28.8  67.8  233.3  0.03  4.6  -79  06:29 

Data every 5 minute.


ใช้เวลาประมวลผล 0.04174 วินาที